Regional Weather Roundup
Issued by NWS

Home | Current Version | Previous Version | Graphics & Text | Print | Product List | Glossary On
Versions: 1 2 3 4 5 6 7 8 9 10 11 12 13 14 15 16 17 18 19 20 21 22 23 24 25 26 27 28 29 30 31 32 33 34 35 36 37 38 39 40 41 42 43 44 45 46 47 48 49 50
000
ASUS44 KMEG 040900
RWRTN
TENNESSEE HOURLY STATE WEATHER ROUNDUP
NATIONAL WEATHER SERVICE MEMPHIS TN
400 AM CDT TUE AUG 04 2015

TNZ002-004-019-021-049-052-054-088>092-041000-
WEST TENNESSEE

CITY           SKY/WX    TMP DP  RH WIND       PRES   REMARKS
MEMPHIS INTL   PTCLDY    79  70  74 CALM      29.95R
NWS MEMPHIS      N/A     74 N/A N/A MISG        N/A
JACKSON        PTCLDY    70  67  90 CALM      29.95R
DYERSBURG        N/A    N/A N/A N/A MISG        N/A
PARIS          CLEAR     68  66  94 CALM      29.96S
LEXINGTON        N/A     70  70 100 CALM      29.96R VSB 1/2
$$

TNZ008-025-027-028-033-062-065-066-041000-
NORTH MIDDLE TENNESSEE

CITY           SKY/WX    TMP DP  RH WIND       PRES   REMARKS
NASHVILLE      CLEAR     74  69  85 CALM      29.97R
CLARKSVILLE    CLEAR     70  69  97 CALM      29.95R
SMYRNA         CLEAR     72  70  94 CALM      29.97R FOG
CROSSVILLE     CLEAR     68  65  90 CALM      30.04S
$$

TNZ061-075-076-078-094-096-097-041000-
SOUTH MIDDLE TENNESSEE

CITY           SKY/WX    TMP DP  RH WIND       PRES   REMARKS
FAYETTEVILLE   CLEAR     70  68  94 CALM      29.99R
SHELBYVILLE    CLEAR     72  72 100 E5        29.99R
$$

TNZ017-018-042-046-047-041000-
NORTHEAST TENNESSEE

CITY           SKY/WX    TMP DP  RH WIND       PRES   REMARKS
TRI CITIES     CLOUDY    64  62  93 CALM      30.03R
$$

TNZ012-013-036-069-073-074-041000-
CENTRAL EAST TENNESSEE

CITY           SKY/WX    TMP DP  RH WIND       PRES   REMARKS
KNOXVILLE      CLEAR     69  62  78 E5        29.99R
OAK RIDGE      CLEAR     70  67  90 CALM      30.00S
GATLINBURG     SUNNY     64  59  82 CALM      30.00R
$$

TNZ083-085-099-041000-
SOUTHEAST TENNESSEE

CITY           SKY/WX    TMP DP  RH WIND       PRES   REMARKS
CHATTANOOGA    CLEAR     71  66  84 CALM      29.98R
$$

SKY/WX REPORTED AS FAIR MEANS FEW OR NO CLOUDS BELOW
12 THOUSAND FEET.



USA.gov is the U.S. government's official web portal to all federal, state and local government web resources and services.